Retour au catalogue

FENGYUN 1C DEB

ActifPO
NORAD 32129·DEBRIS·🇨🇳 China

Lancé May 10, 1999 depuis Taiyuan Satellite Launch Center

Loading…

Prochains Passages (prochaines 24 heures)

TLE

FraisSource: Space-Track

Époque: Sep 13, 2026, 07:39 UTC

1 32129U 99025CRX 26256.31879208  .00003243  00000-0  12062-2 0  9996
2 32129  99.0733  31.1616 0064296 317.5247  72.2397 14.31683649981524

Suivez FENGYUN 1C DEB en temps réel avec AllMySat

Download on the App Store